Zapata, TX

12:38 AM CST on December 11, 2017 (GMT -0600)
Zapata

Weather History for KAPY - January, 2014

Change the Weather History Date:

Thursday, January 16, 2014

  Actual Average (KLRD) Record (KLRD)
Temperature  
Mean Temperature 58 °F -  
Max Temperature 76 °F 66 °F 92 °F (1943)
Min Temperature 39 °F 46 °F 24 °F (1905)
Degree Days  
Heating Degree Days 8    
Growing Degree Days 8 (Base 50)    
Moisture  
Dew Point 34 °F    
Average Humidity 51    
Maximum Humidity 85    
Minimum Humidity 19    
Precipitation  
Precipitation 0.00 in - - ()
Sea Level Pressure  
Sea Level Pressure 30.08 in    
Wind  
Wind Speed 5 mph (SE)    
Max Wind Speed 10 mph    
Max Gust Speed -    
Visibility 10 miles    
Events      
Averages and records for this station are not official NWS values.
T = Trace of Precipitation, MM = Missing Value Source: NWS Daily Summary

Daily Weather History Graph

Daily Weather History Graph

Search for Another Location

Airport or City:

Trip Planner

Search our weather history database for the weather conditions in past years. The results will help you decide how hot, cold, wet, or windy it might be!

Date:

Astronomy

Jan. 16, 2014 Rise Set
Actual Time 7:27 AM CST 6:06 PM CST
Civil Twilight 7:02 AM CST 6:31 PM CST
Nautical Twilight 6:34 AM CST 6:59 PM CST
Astronomical Twilight 6:05 AM CST 7:27 PM CST
Moon 6:50 PM CST (1/16) 7:29 AM CST (1/16)
Length of Visible Light 11h 28m
Length of Day
10h 38m
Full, 100% of the Moon is Illuminated
Jan 16
Full
Jan 23
Last Quarter
Jan 30
New
Feb 6
First Quarter
Feb 14
Full

Hourly Weather History & Observations

Time (CST) Temp. Windchill Dew Point Humidity Pressure Visibility Wind Dir Wind Speed Gust Speed Precip Events Conditions
12:15 AM 47.5 °F - 26.6 °F 44% 30.19 in 10.0 mi SE 5.8 mph - N/A   Clear
12:35 AM 44.6 °F 42.2 °F 27.5 °F 51% 30.18 in 10.0 mi SE 4.6 mph - N/A   Clear
12:55 AM 43.7 °F 39.7 °F 28.0 °F 54% 30.18 in 10.0 mi ESE 6.9 mph - N/A   Clear
1:15 AM 43.7 °F 41.1 °F 27.5 °F 53% 30.17 in 10.0 mi SE 4.6 mph - N/A   Clear
1:35 AM 43.2 °F 41.5 °F 27.5 °F 54% 30.17 in 10.0 mi SE 3.5 mph - N/A   Clear
1:55 AM 41.0 °F 37.1 °F 28.2 °F 60% 30.17 in 10.0 mi ESE 5.8 mph - N/A   Clear
2:15 AM 41.0 °F 37.1 °F 28.2 °F 60% 30.16 in 10.0 mi SE 5.8 mph - N/A   Clear
2:35 AM 41.0 °F 38.0 °F 28.4 °F 61% 30.15 in 10.0 mi SE 4.6 mph - N/A   Clear
2:55 AM 41.0 °F 38.0 °F 28.9 °F 62% 30.15 in 10.0 mi SE 4.6 mph - N/A   Clear
3:15 AM 40.5 °F 36.5 °F 29.3 °F 64% 30.15 in 10.0 mi SE 5.8 mph - N/A   Clear
3:35 AM 39.9 °F 36.7 °F 30.2 °F 68% 30.15 in 10.0 mi SE 4.6 mph - N/A   Clear
3:55 AM 40.6 °F 36.7 °F 30.9 °F 68% 30.14 in 10.0 mi SE 5.8 mph - N/A   Clear
4:15 AM 40.5 °F 36.5 °F 31.3 °F 70% 30.13 in 10.0 mi SE 5.8 mph - N/A   Clear
4:35 AM 41.2 °F 39.2 °F 32.9 °F 72% 30.13 in 10.0 mi SE 3.5 mph - N/A   Clear
4:55 AM 40.1 °F 36.1 °F 33.3 °F 77% 30.12 in 10.0 mi ESE 5.8 mph - N/A   Clear
5:15 AM 39.0 °F 35.7 °F 33.8 °F 82% 30.12 in 10.0 mi ESE 4.6 mph - N/A   Clear
5:35 AM 40.1 °F 36.1 °F 35.2 °F 83% 30.11 in 10.0 mi SE 5.8 mph - N/A   Clear
5:55 AM 41.0 °F 37.1 °F 36.1 °F 83% 30.10 in 10.0 mi SE 5.8 mph - N/A   Clear
6:15 AM 41.9 °F 39.0 °F 36.5 °F 81% 30.10 in 10.0 mi SE 4.6 mph - N/A   Clear
6:35 AM 41.0 °F 37.1 °F 35.8 °F 82% 30.10 in 10.0 mi ESE 5.8 mph - N/A   Clear
6:55 AM 40.3 °F 37.1 °F 36.0 °F 85% 30.10 in 10.0 mi East 4.6 mph - N/A   Clear
7:15 AM 41.2 °F 38.2 °F 36.1 °F 82% 30.10 in 10.0 mi SE 4.6 mph - N/A   Clear
7:35 AM 41.9 °F 39.0 °F 36.5 °F 81% 30.11 in 10.0 mi ESE 4.6 mph - N/A   Clear
7:55 AM 42.3 °F 40.5 °F 36.9 °F 81% 30.11 in 10.0 mi SE 3.5 mph - N/A   Clear
8:15 AM 43.9 °F 41.3 °F 37.6 °F 78% 30.11 in 10.0 mi SSE 4.6 mph - N/A   Clear
8:35 AM 46.8 °F - 39.0 °F 74% 30.11 in 10.0 mi SE 5.8 mph - N/A   Clear
8:55 AM 49.8 °F - 40.5 °F 70% 30.11 in 10.0 mi SSE 5.8 mph - N/A   Clear
9:15 AM 52.5 °F - 40.5 °F 64% 30.11 in 10.0 mi SE 6.9 mph - N/A   Clear
9:35 AM 55.8 °F - 38.1 °F 52% 30.11 in 10.0 mi SSE 9.2 mph - N/A   Clear
9:55 AM 57.6 °F - 36.1 °F 45% 30.12 in 10.0 mi SSE 6.9 mph - N/A   Clear
10:15 AM 59.2 °F - 36.1 °F 42% 30.12 in 10.0 mi SSE 9.2 mph - N/A   Clear
10:35 AM 59.9 °F - 36.5 °F 42% 30.12 in 10.0 mi SSE 9.2 mph - N/A   Clear
10:55 AM 62.6 °F - 34.5 °F 35% 30.11 in 10.0 mi SE 10.4 mph - N/A   Clear
11:15 AM 64.2 °F - 34.3 °F 33% 30.11 in 10.0 mi SE 5.8 mph - N/A   Clear
11:35 AM 65.8 °F - 34.9 °F 32% 30.10 in 10.0 mi SE 5.8 mph - N/A   Clear
11:55 AM 66.7 °F - 34.9 °F 31% 30.08 in 10.0 mi ESE 8.1 mph - N/A   Clear
12:15 PM 68.4 °F - 35.2 °F 30% 30.07 in 10.0 mi SSE 6.9 mph - N/A   Clear
12:35 PM 69.4 °F - 35.1 °F 28% 30.05 in 10.0 mi South 4.6 mph - N/A   Clear
12:55 PM 70.2 °F - 35.6 °F 28% 30.03 in 10.0 mi South 8.1 mph - N/A   Clear
1:15 PM 71.1 °F - 35.8 °F 27% 30.02 in 10.0 mi SSE 5.8 mph - N/A   Clear
1:35 PM 71.8 °F - 35.8 °F 27% 30.01 in 10.0 mi South 4.6 mph - N/A   Clear
1:55 PM 71.6 °F - 35.6 °F 27% 30.00 in 10.0 mi Calm Calm - N/A   Clear
2:35 PM 73.9 °F - 35.1 °F 24% 30.00 in 10.0 mi Calm Calm - N/A   Clear
2:55 PM 74.7 °F - 34.9 °F 23% 29.99 in 10.0 mi SSE 4.6 mph - N/A   Clear
3:15 PM 75.6 °F - 35.6 °F 23% 29.99 in 10.0 mi East 3.5 mph - N/A   Clear
3:35 PM 75.2 °F - 32.2 °F 21% 29.99 in 10.0 mi Calm Calm - N/A   Clear
3:55 PM 75.7 °F - 34.0 °F 22% 29.99 in 10.0 mi ESE 5.8 mph - N/A   Clear
4:15 PM 76.1 °F - 32.2 °F 20% 29.99 in 10.0 mi ESE 3.5 mph - N/A   Clear
4:35 PM 75.4 °F - 31.6 °F 20% 29.99 in 10.0 mi ESE 5.8 mph - N/A   Clear
4:55 PM 75.4 °F - 30.2 °F 19% 29.99 in 10.0 mi East 4.6 mph - N/A   Clear
5:15 PM 74.7 °F - 30.2 °F 19% 29.99 in 10.0 mi ENE 3.5 mph - N/A   Clear
5:35 PM 73.4 °F - 31.1 °F 21% 29.99 in 10.0 mi East 3.5 mph - N/A   Clear
5:55 PM 72.1 °F - 30.2 °F 21% 29.99 in 10.0 mi Calm Calm - N/A   Clear
6:15 PM 68.4 °F - 32.0 °F 26% 30.00 in 10.0 mi Calm Calm - N/A   Clear
6:35 PM 62.2 °F - 32.4 °F 33% 30.01 in 10.0 mi North 4.6 mph - N/A   Clear
6:55 PM 58.6 °F - 32.2 °F 37% 30.02 in 10.0 mi Calm Calm - N/A   Clear
7:15 PM 54.7 °F - 32.9 °F 44% 30.02 in 10.0 mi Calm Calm - N/A   Clear
7:35 PM 53.4 °F - 35.2 °F 50% 30.03 in 10.0 mi Calm Calm - N/A   Clear
7:55 PM 50.5 °F - 34.9 °F 55% 30.04 in 10.0 mi Calm Calm - N/A   Clear
8:15 PM 49.8 °F - 35.1 °F 57% 30.04 in 10.0 mi Calm Calm - N/A   Clear
8:35 PM 49.5 °F - 35.2 °F 58% 30.05 in 10.0 mi Calm Calm - N/A   Clear
8:55 PM 48.7 °F - 35.1 °F 59% 30.06 in 10.0 mi Calm Calm - N/A   Clear
9:15 PM 47.1 °F - 34.0 °F 60% 30.06 in 10.0 mi SE 3.5 mph - N/A   Clear
9:35 PM 48.4 °F - 34.0 °F 58% 30.07 in 10.0 mi SE 3.5 mph - N/A   Clear
9:55 PM 46.6 °F - 34.3 °F 62% 30.07 in 10.0 mi Calm Calm - N/A   Clear
10:15 PM 49.5 °F - 36.1 °F 60% 30.08 in 10.0 mi Calm Calm - N/A   Clear
10:55 PM 45.1 °F - 34.5 °F 66% 30.09 in 10.0 mi Calm Calm - N/A   Clear
11:15 PM 44.1 °F - 34.9 °F 70% 30.09 in 10.0 mi Calm Calm - N/A   Clear
11:35 PM 45.7 °F - 37.2 °F 72% 30.09 in 10.0 mi Calm Calm - N/A   Clear
11:55 PM 44.6 °F - 37.0 °F 75% 30.09 in 10.0 mi Calm Calm - N/A   Clear